| time (UTC) | temp F | wind direction | speed knots | gust knots | rain 1hr in | rain 24hr in | rain mn in | humidity % | barometer mb |
| 20260506195440 | 67 | 198 | 0.0 | 3.5 | 0.00 | 0.00 | 0.00 | 56 | 1003.0 |
| 20260506194226 | 67 | 196 | 0.0 | 4.3 | 0.00 | 0.00 | 0.00 | 55 | 1003.0 |
| 20260506193227 | 68 | 203 | 0.0 | 4.3 | 0.00 | 0.00 | 0.00 | 54 | 1002.7 |
| 20260506192224 | 68 | 196 | 0.0 | 5.2 | 0.00 | 0.00 | 0.00 | 54 | 1002.7 |
| 20260506191440 | 68 | 209 | 0.0 | 2.6 | 0.00 | 0.00 | 0.00 | 53 | 1002.4 |
| 20260506190226 | 68 | 209 | 0.0 | 1.7 | 0.00 | 0.00 | 0.00 | 53 | 1002.4 |
| 20260506185224 | 69 | 211 | 0.0 | 1.7 | 0.00 | 0.00 | 0.00 | 53 | 1002.4 |
| 20260506184226 | 69 | 213 | 0.0 | 6.1 | 0.00 | 0.00 | 0.00 | 52 | 1002.4 |
| 20260506183228 | 70 | 209 | 0.0 | 4.3 | 0.00 | 0.00 | 0.00 | 51 | 1002.0 |
| 20260506182226 | 70 | 196 | 0.0 | 3.5 | 0.00 | 0.00 | 0.00 | 51 | 1001.7 |
| 20260506181226 | 70 | 192 | 0.0 | 5.2 | 0.00 | 0.00 | 0.00 | 50 | 1001.7 |
| 20260506180440 | 71 | 194 | 0.0 | 3.5 | 0.00 | 0.00 | 0.00 | 49 | 1001.7 |
| 20260506175442 | 71 | 193 | 0.0 | 2.6 | 0.00 | 0.00 | 0.00 | 49 | 1001.7 |
| 20260506174228 | 72 | 193 | 0.0 | 2.6 | 0.00 | 0.00 | 0.00 | 49 | 1001.7 |
| 20260506173229 | 72 | 170 | 0.0 | 5.2 | 0.00 | 0.00 | 0.00 | 48 | 1001.7 |
| 20260506172224 | 73 | 200 | 6.1 | 7.0 | 0.00 | 0.00 | 0.00 | 47 | 1001.7 |
| 20260506171225 | 73 | 179 | 2.6 | 7.8 | 0.00 | 0.00 | 0.00 | 47 | 1001.7 |
| 20260506170224 | 74 | 196 | 0.0 | 7.8 | 0.00 | 0.00 | 0.00 | 45 | 1001.7 |
| 20260506165226 | 74 | 203 | 2.6 | 4.3 | 0.00 | 0.00 | 0.00 | 45 | 1001.7 |
| 20260506164224 | 75 | 223 | 1.7 | 7.0 | 0.00 | 0.00 | 0.00 | 44 | 1001.7 |
| 20260506163227 | 75 | 178 | 0.9 | 8.7 | 0.00 | 0.00 | 0.00 | 43 | 1001.7 |
| 20260506162226 | 76 | 181 | 0.0 | 7.0 | 0.00 | 0.00 | 0.00 | 43 | 1002.0 |
| 20260506161227 | 76 | 236 | 0.0 | 7.0 | 0.00 | 0.00 | 0.00 | 41 | 1002.0 |
| 20260506160228 | 77 | 186 | 0.0 | 9.6 | 0.00 | 0.00 | 0.00 | 40 | 1002.0 |
| 20260506155226 | 77 | 249 | 0.0 | 10.4 | 0.00 | 0.00 | 0.00 | 39 | 1002.0 |
| 20260506154227 | 78 | 213 | 0.0 | 8.7 | 0.00 | 0.00 | 0.00 | 38 | 1002.0 |
| 20260506153228 | 78 | 198 | 0.0 | 6.1 | 0.00 | 0.00 | 0.00 | 39 | 1002.0 |
| 20260506152226 | 78 | 199 | 0.0 | 11.3 | 0.00 | 0.00 | 0.00 | 39 | 1002.0 |
| 20260506151227 | 79 | 210 | 0.0 | 11.3 | 0.00 | 0.00 | 0.00 | 38 | 1002.4 |
| 20260506150226 | 78 | 265 | 0.9 | 7.8 | 0.00 | 0.00 | 0.00 | 38 | 1002.4 |
| 20260506145441 | 79 | 241 | 1.7 | 7.0 | 0.00 | 0.00 | 0.00 | 38 | 1002.4 |
| 20260506144225 | 78 | 186 | 1.7 | 8.7 | 0.00 | 0.00 | 0.00 | 38 | 1002.7 |
| 20260506143226 | 78 | 185 | 0.0 | 13.9 | 0.00 | 0.00 | 0.00 | 38 | 1002.7 |
| 20260506142225 | 78 | 185 | 0.0 | 13.9 | 0.00 | 0.00 | 0.00 | 38 | 1002.7 |
| 20260506141234 | 78 | 236 | 0.0 | 6.1 | 0.00 | 0.00 | 0.00 | 38 | 1003.0 |
| 20260506140225 | 78 | 240 | 1.7 | 7.8 | 0.00 | 0.00 | 0.00 | 37 | 1003.0 |
| 20260506135224 | 78 | 161 | 0.0 | 4.3 | 0.00 | 0.00 | 0.00 | 38 | 1003.0 |
| 20260506134226 | 78 | 167 | 2.6 | 6.1 | 0.00 | 0.00 | 0.00 | 40 | 1003.0 |
| 20260506133224 | 77 | 217 | 0.0 | 8.7 | 0.00 | 0.00 | 0.00 | 40 | 1003.4 |
| 20260506132227 | 78 | 208 | 0.0 | 5.2 | 0.00 | 0.00 | 0.00 | 39 | 1003.7 |
| 20260506131227 | 77 | 211 | 0.0 | 2.6 | 0.00 | 0.00 | 0.00 | 40 | 1004.1 |
| 20260506130225 | 78 | 197 | 0.0 | 6.1 | 0.00 | 0.00 | 0.00 | 38 | 1004.1 |
| 20260506125225 | 79 | 259 | 0.0 | 10.4 | 0.00 | 0.00 | 0.00 | 38 | 1004.1 |
| 20260506124224 | 79 | 238 | 0.0 | 8.7 | 0.00 | 0.00 | 0.00 | 40 | 1004.4 |
| 20260506123227 | 79 | 236 | 0.0 | 5.2 | 0.00 | 0.00 | 0.00 | 40 | 1004.4 |
| 20260506122224 | 77 | 201 | 0.0 | 6.1 | 0.00 | 0.00 | 0.00 | 41 | 1004.4 |
| 20260506121226 | 76 | 177 | 0.0 | 9.6 | 0.00 | 0.00 | 0.00 | 42 | 1004.7 |
| 20260506120225 | 76 | 192 | 0.0 | 7.8 | 0.00 | 0.00 | 0.00 | 42 | 1004.7 |
| 20260506115441 | 76 | 202 | 1.7 | 8.7 | 0.00 | 0.00 | 0.00 | 42 | 1005.1 |
| 20260506114224 | 76 | 221 | 0.9 | 10.4 | 0.00 | 0.00 | 0.00 | 42 | 1005.1 |
| 20260506113225 | 77 | 195 | 0.0 | 10.4 | 0.00 | 0.00 | 0.00 | 42 | 1005.1 |
| 20260506112225 | 77 | 218 | 0.0 | 7.8 | 0.00 | 0.00 | 0.00 | 43 | 1005.1 |
| 20260506111226 | 77 | 238 | 0.9 | 7.8 | 0.00 | 0.00 | 0.00 | 44 | 1005.4 |
| 20260506110227 | 76 | 222 | 0.0 | 9.6 | 0.00 | 0.00 | 0.00 | 45 | 1005.4 |
| 20260506105442 | 76 | 245 | 6.1 | 8.7 | 0.00 | 0.00 | 0.00 | 44 | 1005.8 |
| 20260506104227 | 75 | 196 | 0.0 | 7.8 | 0.00 | 0.00 | 0.00 | 46 | 1005.8 |
| 20260506103226 | 75 | 194 | 0.0 | 2.6 | 0.00 | 0.00 | 0.00 | 46 | 1005.8 |
| 20260506102226 | 74 | 194 | 0.0 | 13.0 | 0.00 | 0.00 | 0.00 | 46 | 1006.1 |
| 20260506101225 | 74 | 207 | 0.0 | 6.1 | 0.00 | 0.00 | 0.00 | 48 | 1006.1 |
| 20260506100440 | 74 | 243 | 0.0 | 6.1 | 0.00 | 0.00 | 0.00 | 46 | 1006.4 |
| 20260506095227 | 73 | 192 | 0.0 | 7.0 | 0.00 | 0.00 | 0.00 | 47 | 1006.4 |
| 20260506094226 | 73 | 192 | 0.0 | 7.0 | 0.00 | 0.00 | 0.00 | 47 | 1006.4 |
| 20260506093224 | 73 | 231 | 3.5 | 4.3 | 0.00 | 0.00 | 0.00 | 49 | 1006.4 |
| 20260506092225 | 72 | 221 | 0.0 | 4.3 | 0.00 | 0.00 | 0.00 | 46 | 1006.4 |
| 20260506091226 | 72 | 224 | 0.0 | 4.3 | 0.00 | 0.00 | 0.00 | 47 | 1006.4 |
| 20260506090228 | 72 | 230 | 0.0 | 7.0 | 0.00 | 0.00 | 0.00 | 46 | 1006.4 |
| 20260506085226 | 71 | 228 | 0.0 | 3.5 | 0.00 | 0.00 | 0.00 | 48 | 1006.8 |
| 20260506084225 | 70 | 227 | 0.0 | 0.9 | 0.00 | 0.00 | 0.00 | 49 | 1006.8 |
| 20260506083228 | 70 | 227 | 0.0 | 0.9 | 0.00 | 0.00 | 0.00 | 50 | 1006.8 |
| 20260506082224 | 68 | 227 | 0.0 | 0.0 | 0.00 | 0.00 | 0.00 | 53 | 1006.8 |
| 20260506081225 | 68 | 229 | 0.0 | 4.3 | 0.00 | 0.00 | 0.00 | 53 | 1006.8 |
| 20260506080440 | 68 | 228 | 0.0 | 6.1 | 0.00 | 0.00 | 0.00 | 56 | 1006.8 |
| 20260506073227 | 67 | 229 | 1.7 | 5.2 | 0.00 | 0.00 | 0.00 | 59 | 1007.1 |
| 20260506072224 | 66 | 216 | 0.0 | 5.2 | 0.00 | 0.00 | 0.00 | 61 | 1007.5 |
| 20260506071228 | 66 | 220 | 0.0 | 4.3 | 0.00 | 0.00 | 0.00 | 64 | 1007.5 |
| 20260506070226 | 65 | 220 | 0.0 | 5.2 | 0.00 | 0.00 | 0.00 | 67 | 1007.5 |
| 20260506062225 | 63 | 203 | 1.7 | 4.3 | 0.00 | 0.00 | 0.00 | 72 | 1007.5 |
| 20260506061441 | 62 | 201 | 1.7 | 4.3 | 0.00 | 0.00 | 0.00 | 73 | 1007.5 |
| 20260506060226 | 62 | 201 | 0.9 | 2.6 | 0.00 | 0.00 | 0.00 | 74 | 1007.5 |
| 20260506051225 | 58 | 200 | 0.0 | 3.5 | 0.00 | 0.00 | 0.00 | 82 | 1007.5 |
| 20260506050226 | 58 | 200 | 0.9 | 5.2 | 0.00 | 0.00 | 0.00 | 83 | 1007.1 |
| 20260506044224 | 57 | 199 | 0.0 | 3.5 | 0.00 | 0.00 | 0.00 | 84 | 1007.1 |
| 20260506043226 | 57 | 199 | 0.0 | 2.6 | 0.00 | 0.00 | 0.00 | 84 | 1007.1 |
| 20260506042441 | 57 | 199 | 0.0 | 2.6 | 0.00 | 0.00 | 0.00 | 83 | 1007.1 |
| 20260506041227 | 57 | 198 | 0.0 | 1.7 | 0.00 | 0.00 | 0.00 | 83 | 1006.8 |
| 20260506040226 | 57 | 198 | 0.0 | 0.9 | 0.00 | 0.00 | 0.00 | 82 | 1006.4 |
| 20260506035226 | 57 | 198 | 0.0 | 0.9 | 0.00 | 0.00 | 0.00 | 81 | 1006.8 |
| 20260506034226 | 57 | 198 | 0.0 | 0.9 | 0.00 | 0.00 | 0.00 | 81 | 1006.8 |
| 20260506033227 | 58 | 198 | 0.0 | 1.7 | 0.00 | 0.00 | 0.00 | 79 | 1006.8 |
| 20260506032226 | 58 | 198 | 0.0 | 0.0 | 0.00 | 0.00 | 0.00 | 78 | 1006.8 |
| 20260506031225 | 58 | 198 | 0.0 | 0.0 | 0.00 | 0.00 | 0.00 | 77 | 1006.8 |
| 20260506030226 | 59 | 198 | 0.0 | 1.7 | 0.00 | 0.00 | 0.00 | 76 | 1006.8 |
| 20260506025226 | 59 | 198 | 0.0 | 0.9 | 0.00 | 0.00 | 0.00 | 77 | 1006.8 |
| 20260506024227 | 59 | 198 | 0.0 | 2.6 | 0.00 | 0.00 | 0.00 | 76 | 1006.8 |
| 20260506023224 | 60 | 198 | 0.0 | 0.9 | 0.00 | 0.00 | 0.00 | 75 | 1006.8 |
| 20260506022224 | 60 | 198 | 0.0 | 0.9 | 0.00 | 0.00 | 0.00 | 73 | 1006.8 |
| 20260506021226 | 61 | 198 | 0.0 | 2.6 | 0.00 | 0.00 | 0.00 | 72 | 1006.8 |
| 20260506020226 | 61 | 198 | 0.0 | 0.0 | 0.00 | 0.00 | 0.00 | 71 | 1006.4 |
| 20260506015226 | 61 | 198 | 0.0 | 0.9 | 0.00 | 0.00 | 0.00 | 70 | 1006.4 |
| 20260506014442 | 62 | 198 | 0.0 | 2.6 | 0.00 | 0.00 | 0.00 | 69 | 1006.4 |
| 20260506013442 | 62 | 198 | 0.0 | 2.6 | 0.00 | 0.00 | 0.00 | 68 | 1006.4 |
| 20260506012226 | 62 | 198 | 0.0 | 2.6 | 0.00 | 0.00 | 0.00 | 66 | 1006.4 |
| 20260506011224 | 63 | 198 | 0.0 | 2.6 | 0.00 | 0.00 | 0.00 | 65 | 1006.4 |
| 20260506010224 | 62 | 197 | 0.9 | 3.5 | 0.00 | 0.00 | 0.00 | 65 | 1006.4 |
| 20260506005224 | 62 | 196 | 0.0 | 1.7 | 0.00 | 0.00 | 0.00 | 65 | 1006.1 |
| 20260506004224 | 62 | 196 | 0.0 | 0.0 | 0.00 | 0.00 | 0.00 | 66 | 1006.1 |
| 20260506003226 | 62 | 196 | 0.0 | 1.7 | 0.00 | 0.00 | 0.00 | 66 | 1005.8 |
| 20260506002226 | 62 | 196 | 0.0 | 1.7 | 0.00 | 0.00 | 0.00 | 66 | 1005.4 |
| 20260506001225 | 62 | 196 | 0.0 | 0.0 | 0.00 | 0.00 | 0.00 | 64 | 1005.4 |
| 20260506000441 | 63 | 196 | 0.0 | 0.9 | 0.00 | 0.00 | 0.00 | 63 | 1005.4 |
| 20260505235225 | 62 | 196 | 0.0 | 0.0 | 0.00 | 0.00 | 0.00 | 63 | 1005.4 |
| 20260505234225 | 62 | 196 | 0.0 | 0.0 | 0.00 | 0.00 | 0.00 | 62 | 1005.1 |
| 20260505233224 | 63 | 196 | 0.0 | 1.7 | 0.00 | 0.00 | 0.00 | 61 | 1005.1 |
| 20260505232224 | 62 | 196 | 0.0 | 0.0 | 0.00 | 0.00 | 0.00 | 61 | 1005.1 |
| 20260505231224 | 62 | 196 | 0.0 | 1.7 | 0.00 | 0.00 | 0.00 | 61 | 1004.7 |
| 20260505230227 | 62 | 196 | 0.0 | 0.9 | 0.00 | 0.00 | 0.00 | 61 | 1004.7 |
| 20260505225224 | 62 | 196 | 0.0 | 0.0 | 0.00 | 0.00 | 0.00 | 60 | 1004.4 |
| 20260505224225 | 62 | 196 | 0.0 | 0.0 | 0.00 | 0.00 | 0.00 | 60 | 1004.4 |
| 20260505223228 | 62 | 196 | 0.0 | 0.9 | 0.00 | 0.00 | 0.00 | 60 | 1004.4 |
| 20260505222224 | 62 | 196 | 0.0 | 2.6 | 0.00 | 0.00 | 0.00 | 59 | 1004.1 |
| 20260505221439 | 63 | 196 | 0.0 | 2.6 | 0.00 | 0.00 | 0.00 | 59 | 1004.1 |
| 20260505220225 | 63 | 196 | 0.0 | 2.6 | 0.00 | 0.00 | 0.00 | 59 | 1004.1 |
| 20260505215224 | 62 | 198 | 0.0 | 0.0 | 0.00 | 0.00 | 0.00 | 60 | 1003.7 |
| 20260505214225 | 62 | 198 | 0.0 | 1.7 | 0.00 | 0.00 | 0.00 | 59 | 1003.7 |
| 20260505213440 | 63 | 198 | 0.0 | 1.7 | 0.00 | 0.00 | 0.00 | 58 | 1003.7 |
| 20260505212227 | 63 | 198 | 0.0 | 4.3 | 0.00 | 0.00 | 0.00 | 58 | 1003.7 |
| 20260505211226 | 63 | 207 | 1.7 | 4.3 | 0.00 | 0.00 | 0.00 | 58 | 1003.4 |
| 20260505210224 | 63 | 190 | 0.0 | 5.2 | 0.00 | 0.00 | 0.00 | 57 | 1003.0 |
| 20260505205227 | 64 | 223 | 0.0 | 9.6 | 0.00 | 0.00 | 0.00 | 56 | 1003.0 |
| 20260505204227 | 64 | 167 | 3.5 | 7.8 | 0.00 | 0.00 | 0.00 | 56 | 1003.0 |
| 20260505203226 | 64 | 198 | 2.6 | 5.2 | 0.00 | 0.00 | 0.00 | 55 | 1003.0 |
| 20260505202228 | 64 | 175 | 1.7 | 6.1 | 0.00 | 0.00 | 0.00 | 55 | 1002.7 |
| 20260505201226 | 65 | 199 | 0.0 | 8.7 | 0.00 | 0.00 | 0.00 | 54 | 1002.7 |
| 20260505200227 | 65 | 188 | 4.3 | 6.1 | 0.00 | 0.00 | 0.00 | 53 | 1002.7 |